User: anonymous
Location: ActonStarParty
(42.4766°N, 71.4538°W)
Time: 07:40:36
(UTC-04:00)
Language:

Cosmos 1300 - Orbit

View from above orbital plane
View from above orbital plane
View from above satellite
View from above satellite

Ground track
Ground track

The orbit data is extracted from the following two-line orbital elements,

1 12785U 81082A   14260.05534416  .00005336  00000-0  31241-3 0  8083
2 12785 082.5099 343.4258 0003053 115.6179 300.3350 15.11636306799807
Epoch (UTC): 17 September 2014 01:19:41
Eccentricity: 0.0003053
inclination: 82.5099°
perigee height: 529 km
apogee height: 533 km
right ascension of ascending node: 343.4258°
argument of perigee: 115.6179°
revolutions per day: 15.11636306
mean anomaly at epoch: 300.3350°
orbit number at epoch: 79980

The dashed part of the orbit path shows where the satellite is in the earth's shadow,  

DLR